Time,TemperatureF,DewpointF,PressureIn,WindDirection,WindDirectionDegrees,WindSpeedMPH,WindSpeedGustMPH,Humidity,HourlyPrecipIn,Conditions,Clouds,dailyrainin,SoftwareType,DateUTC
2013-08-29 00:11:00,70.4,68.0,30.04,North,9,0.0,0.0,93,0.00,,,0.00,weatherlink.com 1.10,2013-08-29 05:11:00,
2013-08-29 00:26:00,70.2,68.0,30.05,North,9,0.0,2.0,93,0.00,,,0.00,weatherlink.com 1.10,2013-08-29 05:26:00,
2013-08-29 00:41:00,69.8,67.0,30.05,SSE,152,0.0,1.0,92,0.00,,,0.00,weatherlink.com 1.10,2013-08-29 05:41:00,
2013-08-29 00:56:00,69.6,67.0,30.05,North,5,0.0,2.0,92,0.00,,,0.00,weatherlink.com 1.10,2013-08-29 05:56:00,
2013-08-29 01:11:00,69.3,67.0,30.05,ENE,71,0.0,1.0,92,0.00,,,0.00,weatherlink.com 1.10,2013-08-29 06:11:00,
2013-08-29 01:26:00,68.7,67.0,30.05,ENE,71,0.0,0.0,93,0.00,,,0.00,weatherlink.com 1.10,2013-08-29 06:26:00,
2013-08-29 01:41:00,68.3,66.0,30.05,ENE,71,0.0,0.0,93,0.00,,,0.00,weatherlink.com 1.10,2013-08-29 06:41:00,
2013-08-29 01:56:00,68.0,66.0,30.05,ENE,71,0.0,0.0,94,0.00,,,0.00,weatherlink.com 1.10,2013-08-29 06:56:00,
2013-08-29 02:11:00,67.8,66.0,30.05,ENE,71,0.0,0.0,94,0.00,,,0.00,weatherlink.com 1.10,2013-08-29 07:11:00,
2013-08-29 02:26:00,67.4,66.0,30.05,ENE,71,0.0,0.0,95,0.00,,,0.00,weatherlink.com 1.10,2013-08-29 07:26:00,
2013-08-29 02:41:00,67.1,66.0,30.05,ENE,71,0.0,2.0,95,0.00,,,0.00,weatherlink.com 1.10,2013-08-29 07:41:00,
2013-08-29 02:56:00,66.9,66.0,30.05,ENE,71,0.0,0.0,95,0.00,,,0.00,weatherlink.com 1.10,2013-08-29 07:56:00,
2013-08-29 03:11:00,66.7,65.0,30.05,ENE,71,0.0,0.0,95,0.00,,,0.00,weatherlink.com 1.10,2013-08-29 08:11:00,
2013-08-29 03:26:00,66.5,65.0,30.05,ENE,71,0.0,0.0,96,0.00,,,0.00,weatherlink.com 1.10,2013-08-29 08:26:00,
2013-08-29 03:41:00,66.2,65.0,30.05,ENE,71,0.0,0.0,96,0.00,,,0.00,weatherlink.com 1.10,2013-08-29 08:41:00,
2013-08-29 03:56:00,65.9,65.0,30.05,ENE,71,0.0,0.0,96,0.00,,,0.00,weatherlink.com 1.10,2013-08-29 08:56:00,
2013-08-29 04:11:00,66.0,65.0,30.05,ENE,71,0.0,0.0,96,0.00,,,0.00,weatherlink.com 1.10,2013-08-29 09:11:00,
2013-08-29 04:26:00,65.7,65.0,30.05,ENE,71,0.0,0.0,96,0.00,,,0.00,weatherlink.com 1.10,2013-08-29 09:26:00,
2013-08-29 04:41:00,65.8,65.0,30.05,ENE,71,0.0,0.0,97,0.00,,,0.00,weatherlink.com 1.10,2013-08-29 09:41:00,
2013-08-29 04:56:00,65.4,64.0,30.05,ENE,71,0.0,0.0,96,0.00,,,0.00,weatherlink.com 1.10,2013-08-29 09:56:00,
2013-08-29 05:11:00,65.2,64.0,30.05,ENE,71,0.0,0.0,97,0.00,,,0.00,weatherlink.com 1.10,2013-08-29 10:11:00,
2013-08-29 05:26:00,65.2,64.0,30.05,ENE,71,0.0,0.0,97,0.00,,,0.00,weatherlink.com 1.10,2013-08-29 10:26:00,
2013-08-29 05:41:00,65.2,64.0,30.05,ENE,71,0.0,0.0,97,0.00,,,0.00,weatherlink.com 1.10,2013-08-29 10:41:00,
2013-08-29 05:56:00,65.0,64.0,30.05,ENE,71,0.0,0.0,97,0.00,,,0.00,weatherlink.com 1.10,2013-08-29 10:56:00,
2013-08-29 06:11:00,64.8,64.0,30.06,ENE,71,0.0,0.0,97,0.00,,,0.00,weatherlink.com 1.10,2013-08-29 11:11:00,
2013-08-29 06:26:00,64.7,64.0,30.07,ENE,71,0.0,0.0,97,0.00,,,0.00,weatherlink.com 1.10,2013-08-29 11:26:00,
2013-08-29 06:41:00,64.6,64.0,30.07,ENE,71,0.0,0.0,97,0.00,,,0.00,weatherlink.com 1.10,2013-08-29 11:41:00,
2013-08-29 06:56:00,64.6,64.0,30.08,ENE,71,0.0,0.0,98,0.00,,,0.00,weatherlink.com 1.10,2013-08-29 11:56:00,
2013-08-29 07:11:00,64.6,64.0,30.08,ENE,71,0.0,0.0,98,0.00,,,0.00,weatherlink.com 1.10,2013-08-29 12:11:00,
2013-08-29 07:26:00,64.6,64.0,30.09,ENE,71,0.0,1.0,98,0.00,,,0.00,weatherlink.com 1.10,2013-08-29 12:26:00,
2013-08-29 07:41:00,64.6,64.0,30.10,SSE,147,0.0,0.0,98,0.00,,,0.00,weatherlink.com 1.10,2013-08-29 12:41:00,
2013-08-29 07:56:00,64.7,64.0,30.09,SSE,147,0.0,0.0,98,0.00,,,0.00,weatherlink.com 1.10,2013-08-29 12:56:00,
2013-08-29 08:11:00,65.1,65.0,30.10,SSE,165,0.0,3.0,98,0.00,,,0.00,weatherlink.com 1.10,2013-08-29 13:11:00,
2013-08-29 08:26:00,65.6,65.0,30.10,SE,139,0.0,0.0,98,0.00,,,0.00,weatherlink.com 1.10,2013-08-29 13:26:00,
2013-08-29 08:41:00,66.1,66.0,30.10,SE,137,0.0,0.0,98,0.00,,,0.00,weatherlink.com 1.10,2013-08-29 13:41:00,
2013-08-29 08:56:00,66.5,66.0,30.10,SE,136,0.0,1.0,98,0.00,,,0.00,weatherlink.com 1.10,2013-08-29 13:56:00,
2013-08-29 09:11:00,66.9,66.0,30.10,SE,138,0.0,2.0,98,0.00,,,0.00,weatherlink.com 1.10,2013-08-29 14:11:00,
2013-08-29 09:26:00,67.1,67.0,30.10,SE,140,0.0,3.0,98,0.00,,,0.00,weatherlink.com 1.10,2013-08-29 14:26:00,
2013-08-29 09:41:00,67.2,67.0,30.10,SE,140,0.0,2.0,98,0.00,,,0.00,weatherlink.com 1.10,2013-08-29 14:41:00,
2013-08-29 09:56:00,67.9,67.0,30.10,SE,140,0.0,3.0,98,0.00,,,0.00,weatherlink.com 1.10,2013-08-29 14:56:00,
2013-08-29 10:11:00,68.1,68.0,30.11,SE,140,0.0,3.0,98,0.00,,,0.00,weatherlink.com 1.10,2013-08-29 15:11:00,
2013-08-29 10:26:00,68.3,68.0,30.11,SE,134,0.0,2.0,98,0.00,,,0.00,weatherlink.com 1.10,2013-08-29 15:26:00,
2013-08-29 10:41:00,68.8,68.0,30.11,SE,132,0.0,0.0,98,0.00,,,0.00,weatherlink.com 1.10,2013-08-29 15:41:00,
2013-08-29 10:56:00,69.3,69.0,30.11,SE,129,0.0,2.0,98,0.00,,,0.00,weatherlink.com 1.10,2013-08-29 15:56:00,
2013-08-29 11:11:00,70.0,69.0,30.11,SE,130,0.0,3.0,98,0.00,,,0.00,weatherlink.com 1.10,2013-08-29 16:11:00,
2013-08-29 11:26:00,70.8,70.0,30.10,SE,136,0.0,1.0,97,0.00,,,0.00,weatherlink.com 1.10,2013-08-29 16:26:00,
2013-08-29 11:41:00,72.0,71.0,30.10,SSE,148,1.0,3.0,95,0.00,,,0.00,weatherlink.com 1.10,2013-08-29 16:41:00,
2013-08-29 11:56:00,73.9,71.0,30.10,SSE,158,0.0,3.0,90,0.00,,,0.00,weatherlink.com 1.10,2013-08-29 16:56:00,
2013-08-29 12:12:00,75.5,72.0,30.09,SW,219,1.0,4.0,88,0.00,,,0.00,weatherlink.com 1.10,2013-08-29 17:12:00,
2013-08-29 12:27:00,78.3,73.0,30.09,SSE,155,3.0,3.0,84,0.00,,,0.00,weatherlink.com 1.10,2013-08-29 17:27:00,
2013-08-29 12:42:00,79.8,72.0,30.08,South,188,0.0,5.0,78,0.00,,,0.00,weatherlink.com 1.10,2013-08-29 17:42:00,
2013-08-29 12:57:00,81.0,74.0,30.07,SE,140,0.0,4.0,78,0.00,,,0.00,weatherlink.com 1.10,2013-08-29 17:57:00,
2013-08-29 13:12:00,81.8,72.0,30.07,SSE,163,1.0,5.0,71,0.00,,,0.00,weatherlink.com 1.10,2013-08-29 18:12:00,
2013-08-29 13:27:00,82.7,72.0,30.07,SSE,155,1.0,4.0,70,0.00,,,0.00,weatherlink.com 1.10,2013-08-29 18:27:00,
2013-08-29 13:42:00,82.8,71.0,30.06,South,175,0.0,4.0,68,0.00,,,0.00,weatherlink.com 1.10,2013-08-29 18:42:00,
2013-08-29 13:57:00,83.5,73.0,30.06,ESE,120,0.0,3.0,70,0.00,,,0.00,weatherlink.com 1.10,2013-08-29 18:57:00,
2013-08-29 14:12:00,84.3,71.0,30.05,SSE,148,2.0,5.0,64,0.00,,,0.00,weatherlink.com 1.10,2013-08-29 19:12:00,
2013-08-29 14:27:00,84.5,71.0,30.04,South,171,3.0,5.0,65,0.00,,,0.00,weatherlink.com 1.10,2013-08-29 19:27:00,
2013-08-29 14:42:00,84.5,71.0,30.04,SSE,161,2.0,4.0,65,0.00,,,0.00,weatherlink.com 1.10,2013-08-29 19:42:00,
2013-08-29 14:57:00,85.0,71.0,30.04,South,175,3.0,5.0,63,0.00,,,0.00,weatherlink.com 1.10,2013-08-29 19:57:00,
2013-08-29 15:12:00,84.8,70.0,30.03,SE,142,2.0,4.0,61,0.00,,,0.00,weatherlink.com 1.10,2013-08-29 20:12:00,
2013-08-29 15:27:00,84.6,71.0,30.03,SSW,212,0.0,4.0,64,0.00,,,0.00,weatherlink.com 1.10,2013-08-29 20:27:00,
2013-08-29 15:42:00,85.4,71.0,30.02,SSE,153,3.0,3.0,62,0.00,,,0.00,weatherlink.com 1.10,2013-08-29 20:42:00,
2013-08-29 15:57:00,85.4,71.0,30.02,SE,138,2.0,4.0,62,0.00,,,0.00,weatherlink.com 1.10,2013-08-29 20:57:00,
2013-08-29 16:12:00,85.1,70.0,30.02,SE,142,1.0,5.0,61,0.00,,,0.00,weatherlink.com 1.10,2013-08-29 21:12:00,
2013-08-29 16:27:00,84.7,68.0,30.02,SSE,163,0.0,4.0,58,0.00,,,0.00,weatherlink.com 1.10,2013-08-29 21:27:00,
2013-08-29 16:42:00,84.3,67.0,30.01,SE,130,3.0,6.0,57,0.00,,,0.00,weatherlink.com 1.10,2013-08-29 21:42:00,
2013-08-29 16:57:00,84.1,69.0,30.01,SE,142,3.0,3.0,61,0.00,,,0.00,weatherlink.com 1.10,2013-08-29 21:57:00,
2013-08-29 17:12:00,84.0,69.0,30.01,SSE,161,0.0,3.0,60,0.00,,,0.00,weatherlink.com 1.10,2013-08-29 22:12:00,
2013-08-29 17:27:00,83.8,69.0,30.00,SE,140,1.0,4.0,62,0.00,,,0.00,weatherlink.com 1.10,2013-08-29 22:27:00,
2013-08-29 17:42:00,83.6,69.0,30.00,SSE,157,0.0,3.0,62,0.00,,,0.00,weatherlink.com 1.10,2013-08-29 22:42:00,
2013-08-29 17:57:00,83.2,69.0,30.00,SSE,148,1.0,2.0,62,0.00,,,0.00,weatherlink.com 1.10,2013-08-29 22:57:00,
2013-08-29 18:12:00,82.8,69.0,30.00,SE,144,1.0,2.0,64,0.00,,,0.00,weatherlink.com 1.10,2013-08-29 23:12:00,
2013-08-29 18:27:00,82.3,69.0,30.00,SSE,162,1.0,2.0,64,0.00,,,0.00,weatherlink.com 1.10,2013-08-29 23:27:00,
2013-08-29 18:42:00,81.6,70.0,30.00,SSE,157,0.0,0.0,67,0.00,,,0.00,weatherlink.com 1.10,2013-08-29 23:42:00,
2013-08-29 18:57:00,80.8,69.0,30.00,SSE,155,0.0,0.0,67,0.00,,,0.00,weatherlink.com 1.10,2013-08-29 23:57:00,
2013-08-29 19:12:00,79.9,69.0,29.99,SSE,155,0.0,0.0,69,0.00,,,0.00,weatherlink.com 1.10,2013-08-30 00:12:00,
2013-08-29 19:27:00,78.9,69.0,29.99,SSE,163,1.0,2.0,71,0.00,,,0.00,weatherlink.com 1.10,2013-08-30 00:27:00,
2013-08-29 19:42:00,77.8,69.0,29.99,SSE,156,0.0,1.0,73,0.00,,,0.00,weatherlink.com 1.10,2013-08-30 00:42:00,
2013-08-29 19:57:00,77.4,69.0,29.99,SSE,160,1.0,2.0,74,0.00,,,0.00,weatherlink.com 1.10,2013-08-30 00:57:00,
2013-08-29 20:12:00,76.7,69.0,29.99,SE,142,2.0,2.0,76,0.00,,,0.00,weatherlink.com 1.10,2013-08-30 01:12:00,
2013-08-29 20:27:00,76.3,69.0,30.00,SE,146,1.0,3.0,78,0.00,,,0.00,weatherlink.com 1.10,2013-08-30 01:27:00,
2013-08-29 20:42:00,75.7,69.0,30.00,SE,135,2.0,3.0,80,0.00,,,0.00,weatherlink.com 1.10,2013-08-30 01:42:00,
2013-08-29 20:57:00,75.3,70.0,30.00,South,169,1.0,3.0,82,0.00,,,0.00,weatherlink.com 1.10,2013-08-30 01:57:00,
2013-08-29 21:12:00,74.9,69.0,30.00,South,184,1.0,3.0,83,0.00,,,0.00,weatherlink.com 1.10,2013-08-30 02:12:00,
2013-08-29 21:27:00,74.5,69.0,29.99,South,184,2.0,3.0,84,0.00,,,0.00,weatherlink.com 1.10,2013-08-30 02:27:00,
2013-08-29 21:42:00,73.9,70.0,29.99,South,172,1.0,2.0,86,0.00,,,0.00,weatherlink.com 1.10,2013-08-30 02:42:00,
2013-08-29 21:57:00,73.5,70.0,30.00,SSE,163,0.0,2.0,87,0.00,,,0.00,weatherlink.com 1.10,2013-08-30 02:57:00,
2013-08-29 22:12:00,73.2,69.0,30.00,SSE,165,1.0,2.0,87,0.00,,,0.00,weatherlink.com 1.10,2013-08-30 03:12:00,
2013-08-29 22:27:00,73.0,69.0,29.99,South,169,0.0,0.0,88,0.00,,,0.00,weatherlink.com 1.10,2013-08-30 03:27:00,
2013-08-29 22:42:00,72.7,69.0,29.99,SSE,163,0.0,1.0,89,0.00,,,0.00,weatherlink.com 1.10,2013-08-30 03:42:00,
2013-08-29 22:57:00,72.4,69.0,29.99,SSE,163,0.0,0.0,89,0.00,,,0.00,weatherlink.com 1.10,2013-08-30 03:57:00,
2013-08-29 23:12:00,72.1,69.0,29.99,SSE,163,0.0,0.0,90,0.00,,,0.00,weatherlink.com 1.10,2013-08-30 04:12:00,
2013-08-29 23:28:00,71.9,69.0,29.99,South,188,0.0,0.0,91,0.00,,,0.00,weatherlink.com 1.10,2013-08-30 04:28:00,
2013-08-29 23:42:00,71.5,69.0,29.99,South,174,0.0,2.0,91,0.00,,,0.00,weatherlink.com 1.10,2013-08-30 04:42:00,
2013-08-29 23:58:00,71.3,69.0,29.99,South,178,1.0,2.0,92,0.00,,,0.00,weatherlink.com 1.10,2013-08-30 04:58:00,